Regional Weather Roundup
Issued by NWS

Home | Current Version | Previous Version | Graphics & Text | Print | Product List | Glossary On
Versions: 1 2 3 4 5 6 7 8 9 10 11 12 13 14 15 16 17 18 19 20 21 22 23 24 25 26 27
000
ASUS45 KSLC 042210
RWRUT

UTAH REGIONAL WEATHER ROUNDUP
NATIONAL WEATHER SERVICE SALT LAKE CITY UT
400 PM MDT WED MAY 04 2016

UTZ001>011-023>025-042300-

NORTHERN UTAH

CITY           SKY/WX    TMP DP  RH WIND       PRES   REMARKS
BRIGHAM CITY   MOSUNNY   76  26  15 SW7       30.04F
HILL AFB       PTSUNNY   76  34  21 S7        30.05F
LOGAN          MOSUNNY   75  35  23 W8        30.04F
OGDEN          PTSUNNY   78  31  17 N3        30.03F
PROVO AIRPORT  PTSUNNY   77  32  19 W7        30.04F
SALT LAKE CITY PTSUNNY   81  27  14 SE10      30.01F
VERNAL         SUNNY     75  25  15 SW9       30.13F
WENDOVER       MOSUNNY   72  39  30 SE3       30.02F
HEBER CITY     MOSUNNY   75  30  19 W7        30.06F

$$

UTZ012>022-026-027-042300-

SOUTHERN/CENTRAL UTAH

CITY           SKY/WX    TMP DP  RH WIND       PRES   REMARKS
BLANDING       SUNNY     73  28  18 SE14      30.26F
BRYCE CANYON   SUNNY     66  27  23 S14G24    30.23F
CEDAR CITY     MOSUNNY   76  25  15 SE18G25   30.05F
DELTA          MOSUNNY   79  30  17 S12G23    30.02F
HANKSVILLE     SUNNY     82  25  12 S12G22    30.08F
MILFORD        MOSUNNY   80  28  15 S21G26    30.00F
MOAB/CYNLANDS  SUNNY     82  25  12 SE14G23   30.07F
PRICE          SUNNY     74  27  17 S14G23    30.15F
ST GEORGE      PTCLDY    90  30  12 SW15      29.90F

$$

REGIONAL REPORTS     COLORADO/ARIZONA

CITY           SKY/WX    TMP DP  RH WIND       PRES   REMARKS
CRAIG, CO      SUNNY     73  26  17 W8        30.17F
GRAND JUNCTION SUNNY     76  30  18 W8        30.12F
RIFLE          SUNNY     76  26  15 W13G18    30.13F
MONTROSE       SUNNY     76  26  15 N9        30.17F
CORTEZ         SUNNY     74  24  15 SW8       30.20F
PAGE, AZ       SUNNY     85  19   9 S15G23    30.03F
GRAND CANYON   SUNNY     77  22  13 SW14G24   30.15F
KINGMAN        SUNNY     89  24   9 SE16G30   29.93F
FLAGSTAFF      SUNNY     70  20  15 S9G25     30.20F

$$

REGIONAL REPORTS    NEVADA/IDAHO/WYOMING

CITY           SKY/WX    TMP DP  RH WIND       PRES   REMARKS
LAS VEGAS, NV  MOSUNNY   91  23   8 S10       29.81F
ELY            MOSUNNY   70  30  22 S20G26    30.06F
ELKO           CLOUDY    73  33  23 S9        29.98F
POCATELLO, ID  MOSUNNY   77  32  19 S16       30.04F
BURLEY         PTSUNNY   77  32  19 MISG      29.98F
EVANSTON, WY   PTSUNNY   71  26  18 SW17G26   30.17F
ROCK SPRINGS   SUNNY     68  23  18 SW6       30.17F
KEMMERER         N/A     70  19  14 S7        30.19F

$$




USA.gov is the U.S. government's official web portal to all federal, state and local government web resources and services.